Home > Time Zones > World Clock > Weather > China > Wuhan > Past weeks

Flag for China Weather past 2 weeks in Wuhan, Hubei, China

Now
91 °F

Scattered clouds.


Feels Like: 108 °F
Forecast: 78 / 93 °F
Wind: 10 mph from Northeast

Location: Wuhan Airport

Current Time: Aug 1, 2014 at 12:48:16 PM

Latest Report: Aug 1, 2014 at 12:00 PM


Visibility: N/A

Pressure: 29.59 "Hg

Humidity: 67%

Dew point: 79 °F

Location of WuhanLocation

Historic Weather in Wuhan — Graph

°F

Wuhan temperature yesterday

Maximum temperature yesterday: 93 °F (at 2:00 PM)
Minimum temperature yesterday: 81 °F (at 3:00 AM)
Average temperature yesterday: 86 °F

Past Weeks' High & Low Weather Summary

 TemperatureHumidityPressure
High99 °F (Jul 22, 2:00 PM)100% (Jul 17, 12:00 PM)29.86 "Hg (Jul 17, 12:00 PM)
Low73 °F (Jul 26, 4:00 AM)49% (Jul 27, 2:00 PM)29.45 "Hg (Jul 24, 4:00 PM)
Average86 °F77%29.68 "Hg
* Reported Jul 17 12:00 Noon — Aug 1 12:00 Noon, Wuhan, Weather by CustomWeather, © 2014

Note: Actual official high and low records may vary slightly from our data, if they occured in-between our weather recording intervals... More about our weather records

Advertising

Wuhan weather history for previous 24 hours

 ConditionsComfort  
Time TempWeatherWind HumidityBarometerVisibility
12:00 PM
Aug 1
91 °FScattered clouds.10 mph67%29.59 "HgN/A
11:00 AM88 °FPassing clouds.8 mph70%29.62 "Hg4 mi
10:00 AM88 °FPassing clouds.8 mph70%29.62 "Hg4 mi
9:00 AM84 °FClear.6 mph84%29.62 "Hg4 mi
8:00 AM82 °FFog.3 mph84%29.62 "Hg3 mi
7:00 AM81 °FFog.3 mph89%29.62 "Hg2 mi
6:00 AM77 °FFog.1 mph100%29.59 "Hg2 mi
5:00 AM79 °FClear.1 mph94%29.59 "Hg10 mi
4:00 AM79 °FClear.1 mph94%29.59 "Hg10 mi
3:00 AM79 °FClear.1 mph94%29.59 "Hg10 mi
2:00 AM81 °FClear.3 mph89%29.59 "Hg10 mi
1:00 AM81 °FClear.1 mph89%29.59 "Hg10 mi
12:00 AM81 °FClear.3 mph89%29.62 "Hg10 mi
11:00 PM
Jul 31
82 °FPassing clouds.3 mph84%29.62 "HgN/A
10:00 PM86 °FClear.8 mph75%29.62 "Hg10 mi
9:00 PM86 °FPassing clouds.3 mph79%29.62 "HgN/A
8:00 PM88 °FPassing clouds.6 mph75%29.59 "HgN/A
7:00 PM90 °FPassing clouds.6 mph67%29.56 "HgN/A
6:00 PM93 °FPassing clouds.1 mph67%29.56 "HgN/A
5:00 PM93 °FPassing clouds.6 mph67%29.56 "HgN/A
4:00 PM93 °FPassing clouds.3 mph67%29.59 "HgN/A
3:00 PM93 °FPassing clouds.6 mph67%29.59 "HgN/A
2:00 PM93 °FPassing clouds.3 mph63%29.62 "HgN/A
1:00 PM91 °FSunny.8 mph63%29.62 "Hg10 mi
12:00 PM88 °FPassing clouds.8 mph70%29.65 "HgN/A
Weather by CustomWeather, © 2014

See weather overviewHow to use our weather pages